owner,sensor,date,latitude,longitude,air_temperature,qcFlag 
COMPS,ioos:station:USF.COMPS:C10:1,2016-07-01T00:05:00Z,27.1690,-82.9260,29.36,1111122 
COMPS,ioos:station:USF.COMPS:C10:1,2016-07-01T00:35:00Z,27.1690,-82.9260,29.19,1111122 
COMPS,ioos:station:USF.COMPS:C10:1,2016-07-01T01:05:00Z,27.1690,-82.9260,29.16,1111122 
COMPS,ioos:station:USF.COMPS:C10:1,2016-07-01T01:35:00Z,27.1690,-82.9260,29.16,1111122 
COMPS,ioos:station:USF.COMPS:C10:1,2016-07-01T02:05:00Z,27.1690,-82.9260,29.14,1111122 
COMPS,ioos:station:USF.COMPS:C10:1,2016-07-01T02:35:00Z,27.1690,-82.9260,29.07,1111122 
COMPS,ioos:station:USF.COMPS:C10:1,2016-07-01T03:05:00Z,27.1690,-82.9260,29.11,1111122 
COMPS,ioos:station:USF.COMPS:C10:1,2016-07-01T03:35:00Z,27.1690,-82.9260,29.07,1111122 
COMPS,ioos:station:USF.COMPS:C10:1,2016-07-01T04:05:00Z,27.1690,-82.9260,29.02,1111122 
COMPS,ioos:station:USF.COMPS:C10:1,2016-07-01T04:35:00Z,27.1690,-82.9260,28.9,1111122 
COMPS,ioos:station:USF.COMPS:C10:1,2016-07-01T05:05:00Z,27.1690,-82.9260,28.92,1111122 
COMPS,ioos:station:USF.COMPS:C10:1,2016-07-01T05:35:00Z,27.1690,-82.9260,28.83,1111122 
COMPS,ioos:station:USF.COMPS:C10:1,2016-07-01T06:05:00Z,27.1690,-82.9260,28.85,1111122 
COMPS,ioos:station:USF.COMPS:C10:1,2016-07-01T06:35:00Z,27.1690,-82.9260,28.8,1111122 
COMPS,ioos:station:USF.COMPS:C10:1,2016-07-01T07:05:00Z,27.1690,-82.9260,28.74,1111122 
COMPS,ioos:station:USF.COMPS:C10:1,2016-07-01T07:35:00Z,27.1690,-82.9260,28.8,1111122 
COMPS,ioos:station:USF.COMPS:C10:1,2016-07-01T08:05:00Z,27.1690,-82.9260,28.82,1111122 
COMPS,ioos:station:USF.COMPS:C10:1,2016-07-01T08:35:00Z,27.1690,-82.9260,28.76,1111122 
COMPS,ioos:station:USF.COMPS:C10:1,2016-07-01T09:05:00Z,27.1690,-82.9260,28.8,1111122 
COMPS,ioos:station:USF.COMPS:C10:1,2016-07-01T09:35:00Z,27.1690,-82.9260,28.81,1111122 
COMPS,ioos:station:USF.COMPS:C10:1,2016-07-01T10:05:00Z,27.1690,-82.9260,28.91,1111122 
COMPS,ioos:station:USF.COMPS:C10:1,2016-07-01T10:35:00Z,27.1690,-82.9260,28.87,1111122 
COMPS,ioos:station:USF.COMPS:C10:1,2016-07-01T11:05:00Z,27.1690,-82.9260,28.91,1111122 
COMPS,ioos:station:USF.COMPS:C10:1,2016-07-01T11:35:00Z,27.1690,-82.9260,29.38,1111122 
COMPS,ioos:station:USF.COMPS:C10:1,2016-07-01T12:05:00Z,27.1690,-82.9260,29.25,1111122 
COMPS,ioos:station:USF.COMPS:C10:1,2016-07-01T12:35:00Z,27.1690,-82.9260,29.32,1111122 
COMPS,ioos:station:USF.COMPS:C10:1,2016-07-01T13:05:00Z,27.1690,-82.9260,29.22,1111122 
COMPS,ioos:station:USF.COMPS:C10:1,2016-07-01T13:35:00Z,27.1690,-82.9260,29.11,1111122 
COMPS,ioos:station:USF.COMPS:C10:1,2016-07-01T14:05:00Z,27.1690,-82.9260,29.15,1111122 
COMPS,ioos:station:USF.COMPS:C10:1,2016-07-01T14:35:00Z,27.1690,-82.9260,29.24,1111122 
COMPS,ioos:station:USF.COMPS:C10:1,2016-07-01T15:05:00Z,27.1690,-82.9260,29.35,1111122 
COMPS,ioos:station:USF.COMPS:C10:1,2016-07-01T15:35:00Z,27.1690,-82.9260,29.32,1111122 
COMPS,ioos:station:USF.COMPS:C10:1,2016-07-01T16:05:00Z,27.1690,-82.9260,29.44,1111122 
COMPS,ioos:station:USF.COMPS:C10:1,2016-07-01T16:35:00Z,27.1690,-82.9260,29.23,1111122 
COMPS,ioos:station:USF.COMPS:C10:1,2016-07-01T17:05:00Z,27.1690,-82.9260,29.56,1111122 
COMPS,ioos:station:USF.COMPS:C10:1,2016-07-01T17:35:00Z,27.1690,-82.9260,29.36,1111122 
COMPS,ioos:station:USF.COMPS:C10:1,2016-07-01T18:05:00Z,27.1690,-82.9260,29.41,1111122 
COMPS,ioos:station:USF.COMPS:C10:1,2016-07-01T18:35:00Z,27.1690,-82.9260,29.34,1111122 
COMPS,ioos:station:USF.COMPS:C10:1,2016-07-01T19:05:00Z,27.1690,-82.9260,29.33,1111122 
COMPS,ioos:station:USF.COMPS:C10:1,2016-07-01T19:35:00Z,27.1690,-82.9260,29.3,1111122 
COMPS,ioos:station:USF.COMPS:C10:1,2016-07-01T20:05:00Z,27.1690,-82.9260,29.34,1111122 
COMPS,ioos:station:USF.COMPS:C10:1,2016-07-01T20:35:00Z,27.1690,-82.9260,29.47,1111122 
COMPS,ioos:station:USF.COMPS:C10:1,2016-07-01T21:05:00Z,27.1690,-82.9260,29.49,1111122 
COMPS,ioos:station:USF.COMPS:C10:1,2016-07-01T21:35:00Z,27.1690,-82.9260,29.53,1111122 
COMPS,ioos:station:USF.COMPS:C10:1,2016-07-01T22:05:00Z,27.1690,-82.9260,29.5,1111122 
COMPS,ioos:station:USF.COMPS:C10:1,2016-07-01T22:35:00Z,27.1690,-82.9260,29.72,1111122 
COMPS,ioos:station:USF.COMPS:C10:1,2016-07-01T23:05:00Z,27.1690,-82.9260,29.84,1111122 
COMPS,ioos:station:USF.COMPS:C10:1,2016-07-01T23:35:00Z,27.1690,-82.9260,29.5,1111122 
COMPS,ioos:station:USF.COMPS:C10:1,2016-07-02T00:05:00Z,27.1690,-82.9260,29.44,1111122 
COMPS,ioos:station:USF.COMPS:C10:1,2016-07-02T00:35:00Z,27.1690,-82.9260,29.37,1111122 
COMPS,ioos:station:USF.COMPS:C10:1,2016-07-02T01:05:00Z,27.1690,-82.9260,28.92,1111122 
COMPS,ioos:station:USF.COMPS:C10:1,2016-07-02T01:35:00Z,27.1690,-82.9260,28.77,1111122 
COMPS,ioos:station:USF.COMPS:C10:1,2016-07-02T02:05:00Z,27.1690,-82.9260,28.72,1111122 
COMPS,ioos:station:USF.COMPS:C10:1,2016-07-02T02:35:00Z,27.1690,-82.9260,28.73,1111122 
COMPS,ioos:station:USF.COMPS:C10:1,2016-07-02T03:05:00Z,27.1690,-82.9260,28.82,1111122 
COMPS,ioos:station:USF.COMPS:C10:1,2016-07-02T03:35:00Z,27.1690,-82.9260,28.75,1111122 
COMPS,ioos:station:USF.COMPS:C10:1,2016-07-02T04:05:00Z,27.1690,-82.9260,28.84,1111122 
COMPS,ioos:station:USF.COMPS:C10:1,2016-07-02T04:35:00Z,27.1690,-82.9260,28.78,1111122 
COMPS,ioos:station:USF.COMPS:C10:1,2016-07-02T05:05:00Z,27.1690,-82.9260,28.78,1111122 
COMPS,ioos:station:USF.COMPS:C10:1,2016-07-02T05:35:00Z,27.1690,-82.9260,28.77,1111122 
COMPS,ioos:station:USF.COMPS:C10:1,2016-07-02T06:05:00Z,27.1690,-82.9260,28.76,1111122 
COMPS,ioos:station:USF.COMPS:C10:1,2016-07-02T06:35:00Z,27.1690,-82.9260,28.81,1111122 
COMPS,ioos:station:USF.COMPS:C10:1,2016-07-02T07:05:00Z,27.1690,-82.9260,28.79,1111122 
COMPS,ioos:station:USF.COMPS:C10:1,2016-07-02T07:35:00Z,27.1690,-82.9260,28.76,1111122 
COMPS,ioos:station:USF.COMPS:C10:1,2016-07-02T08:05:00Z,27.1690,-82.9260,28.94,1111122 
COMPS,ioos:station:USF.COMPS:C10:1,2016-07-02T08:35:00Z,27.1690,-82.9260,28.72,1111122 
COMPS,ioos:station:USF.COMPS:C10:1,2016-07-02T09:05:00Z,27.1690,-82.9260,28.67,1111122 
COMPS,ioos:station:USF.COMPS:C10:1,2016-07-02T09:35:00Z,27.1690,-82.9260,28.69,1111122 
COMPS,ioos:station:USF.COMPS:C10:1,2016-07-02T10:05:00Z,27.1690,-82.9260,28.8,1111122 
COMPS,ioos:station:USF.COMPS:C10:1,2016-07-02T10:35:00Z,27.1690,-82.9260,28.73,1111122 
COMPS,ioos:station:USF.COMPS:C10:1,2016-07-02T11:05:00Z,27.1690,-82.9260,28.82,1111122 
COMPS,ioos:station:USF.COMPS:C10:1,2016-07-02T11:35:00Z,27.1690,-82.9260,29.29,1111122 
COMPS,ioos:station:USF.COMPS:C10:1,2016-07-02T12:05:00Z,27.1690,-82.9260,29.33,1111122 
COMPS,ioos:station:USF.COMPS:C10:1,2016-07-02T12:35:00Z,27.1690,-82.9260,29.16,1111122 
COMPS,ioos:station:USF.COMPS:C10:1,2016-07-02T13:05:00Z,27.1690,-82.9260,29.23,1111122 
COMPS,ioos:station:USF.COMPS:C10:1,2016-07-02T13:35:00Z,27.1690,-82.9260,29.22,1111122 
COMPS,ioos:station:USF.COMPS:C10:1,2016-07-02T14:05:00Z,27.1690,-82.9260,29.17,1111122 
COMPS,ioos:station:USF.COMPS:C10:1,2016-07-02T14:35:00Z,27.1690,-82.9260,29.3,1111122 
COMPS,ioos:station:USF.COMPS:C10:1,2016-07-02T15:05:00Z,27.1690,-82.9260,29.36,1111122 
COMPS,ioos:station:USF.COMPS:C10:1,2016-07-02T15:35:00Z,27.1690,-82.9260,29.42,1111122 
COMPS,ioos:station:USF.COMPS:C10:1,2016-07-02T16:05:00Z,27.1690,-82.9260,29.53,1111122 
COMPS,ioos:station:USF.COMPS:C10:1,2016-07-02T16:35:00Z,27.1690,-82.9260,29.41,1111122 
COMPS,ioos:station:USF.COMPS:C10:1,2016-07-02T17:05:00Z,27.1690,-82.9260,29.57,1111122 
COMPS,ioos:station:USF.COMPS:C10:1,2016-07-02T17:35:00Z,27.1690,-82.9260,29.59,1111122 
COMPS,ioos:station:USF.COMPS:C10:1,2016-07-02T18:05:00Z,27.1690,-82.9260,29.64,1111122 
COMPS,ioos:station:USF.COMPS:C10:1,2016-07-02T18:35:00Z,27.1690,-82.9260,29.67,1111122 
COMPS,ioos:station:USF.COMPS:C10:1,2016-07-02T19:05:00Z,27.1690,-82.9260,29.72,1111122 
COMPS,ioos:station:USF.COMPS:C10:1,2016-07-02T19:35:00Z,27.1690,-82.9260,29.55,1111122 
COMPS,ioos:station:USF.COMPS:C10:1,2016-07-02T20:05:00Z,27.1690,-82.9260,29.55,1111122 
COMPS,ioos:station:USF.COMPS:C10:1,2016-07-02T20:35:00Z,27.1690,-82.9260,29.55,1111122 
COMPS,ioos:station:USF.COMPS:C10:1,2016-07-02T21:05:00Z,27.1690,-82.9260,29.79,1111122 
COMPS,ioos:station:USF.COMPS:C10:1,2016-07-02T21:35:00Z,27.1690,-82.9260,29.57,1111122 
COMPS,ioos:station:USF.COMPS:C10:1,2016-07-02T22:05:00Z,27.1690,-82.9260,29.68,1111122 
COMPS,ioos:station:USF.COMPS:C10:1,2016-07-02T22:35:00Z,27.1690,-82.9260,29.92,1111122 
COMPS,ioos:station:USF.COMPS:C10:1,2016-07-02T23:05:00Z,27.1690,-82.9260,29.47,1111122 
COMPS,ioos:station:USF.COMPS:C10:1,2016-07-02T23:35:00Z,27.1690,-82.9260,29.39,1111122 
COMPS,ioos:station:USF.COMPS:C10:1,2016-07-03T00:05:00Z,27.1690,-82.9260,28.67,1111122 
COMPS,ioos:station:USF.COMPS:C10:1,2016-07-03T00:35:00Z,27.1690,-82.9260,29.12,1111122 
COMPS,ioos:station:USF.COMPS:C10:1,2016-07-03T01:05:00Z,27.1690,-82.9260,29.28,1111122 
COMPS,ioos:station:USF.COMPS:C10:1,2016-07-03T01:35:00Z,27.1690,-82.9260,29.37,1111122 
COMPS,ioos:station:USF.COMPS:C10:1,2016-07-03T02:05:00Z,27.1690,-82.9260,29.45,1111122 
COMPS,ioos:station:USF.COMPS:C10:1,2016-07-03T02:35:00Z,27.1690,-82.9260,29.54,1111122 
COMPS,ioos:station:USF.COMPS:C10:1,2016-07-03T03:05:00Z,27.1690,-82.9260,29.53,1111122 
COMPS,ioos:station:USF.COMPS:C10:1,2016-07-03T03:35:00Z,27.1690,-82.9260,29.34,1111122 
COMPS,ioos:station:USF.COMPS:C10:1,2016-07-03T04:05:00Z,27.1690,-82.9260,29.25,1111122 
COMPS,ioos:station:USF.COMPS:C10:1,2016-07-03T04:35:00Z,27.1690,-82.9260,29.23,1111122 
COMPS,ioos:station:USF.COMPS:C10:1,2016-07-03T05:05:00Z,27.1690,-82.9260,29.29,1111122 
COMPS,ioos:station:USF.COMPS:C10:1,2016-07-03T05:35:00Z,27.1690,-82.9260,29.36,1111122 
COMPS,ioos:station:USF.COMPS:C10:1,2016-07-03T06:05:00Z,27.1690,-82.9260,29.28,1111122 
COMPS,ioos:station:USF.COMPS:C10:1,2016-07-03T06:35:00Z,27.1690,-82.9260,29.31,1111122 
COMPS,ioos:station:USF.COMPS:C10:1,2016-07-03T07:05:00Z,27.1690,-82.9260,29.16,1111122 
COMPS,ioos:station:USF.COMPS:C10:1,2016-07-03T07:35:00Z,27.1690,-82.9260,29.23,1111122 
COMPS,ioos:station:USF.COMPS:C10:1,2016-07-03T08:05:00Z,27.1690,-82.9260,29.24,1111122 
COMPS,ioos:station:USF.COMPS:C10:1,2016-07-03T08:35:00Z,27.1690,-82.9260,29.19,1111122 
COMPS,ioos:station:USF.COMPS:C10:1,2016-07-03T09:05:00Z,27.1690,-82.9260,29.12,1111122 
COMPS,ioos:station:USF.COMPS:C10:1,2016-07-03T09:35:00Z,27.1690,-82.9260,29.13,1111122 
COMPS,ioos:station:USF.COMPS:C10:1,2016-07-03T10:05:00Z,27.1690,-82.9260,29.17,1111122 
COMPS,ioos:station:USF.COMPS:C10:1,2016-07-03T10:35:00Z,27.1690,-82.9260,29.15,1111122 
COMPS,ioos:station:USF.COMPS:C10:1,2016-07-03T11:05:00Z,27.1690,-82.9260,29.04,1111122 
COMPS,ioos:station:USF.COMPS:C10:1,2016-07-03T11:35:00Z,27.1690,-82.9260,29.15,1111122 
COMPS,ioos:station:USF.COMPS:C10:1,2016-07-03T12:05:00Z,27.1690,-82.9260,29.47,1111122 
COMPS,ioos:station:USF.COMPS:C10:1,2016-07-03T12:35:00Z,27.1690,-82.9260,30.26,1111122 
COMPS,ioos:station:USF.COMPS:C10:1,2016-07-03T13:05:00Z,27.1690,-82.9260,30.9,1111122 
COMPS,ioos:station:USF.COMPS:C10:1,2016-07-03T13:35:00Z,27.1690,-82.9260,30.09,1111122 
COMPS,ioos:station:USF.COMPS:C10:1,2016-07-03T14:05:00Z,27.1690,-82.9260,29.52,1111122 
COMPS,ioos:station:USF.COMPS:C10:1,2016-07-03T14:35:00Z,27.1690,-82.9260,29.72,1111122 
COMPS,ioos:station:USF.COMPS:C10:1,2016-07-03T15:05:00Z,27.1690,-82.9260,29.73,1111122 
COMPS,ioos:station:USF.COMPS:C10:1,2016-07-03T15:35:00Z,27.1690,-82.9260,30.01,1111122 
COMPS,ioos:station:USF.COMPS:C10:1,2016-07-03T17:05:00Z,27.1690,-82.9260,28.59,1111122 
COMPS,ioos:station:USF.COMPS:C10:1,2016-07-03T17:35:00Z,27.1690,-82.9260,28.46,1111122 
COMPS,ioos:station:USF.COMPS:C10:1,2016-07-03T18:05:00Z,27.1690,-82.9260,28.88,1111122 
COMPS,ioos:station:USF.COMPS:C10:1,2016-07-03T18:35:00Z,27.1690,-82.9260,28.85,1111122 
COMPS,ioos:station:USF.COMPS:C10:1,2016-07-03T19:05:00Z,27.1690,-82.9260,29.4,1111122 
COMPS,ioos:station:USF.COMPS:C10:1,2016-07-03T19:35:00Z,27.1690,-82.9260,29.78,1111122 
COMPS,ioos:station:USF.COMPS:C10:1,2016-07-03T20:05:00Z,27.1690,-82.9260,29.78,1111122 
COMPS,ioos:station:USF.COMPS:C10:1,2016-07-03T20:35:00Z,27.1690,-82.9260,29.74,1111122 
COMPS,ioos:station:USF.COMPS:C10:1,2016-07-03T21:05:00Z,27.1690,-82.9260,29.97,1111122 
COMPS,ioos:station:USF.COMPS:C10:1,2016-07-03T21:35:00Z,27.1690,-82.9260,30.19,1111122 
COMPS,ioos:station:USF.COMPS:C10:1,2016-07-03T22:05:00Z,27.1690,-82.9260,30.18,1111122 
COMPS,ioos:station:USF.COMPS:C10:1,2016-07-03T22:35:00Z,27.1690,-82.9260,30.37,1111122 
COMPS,ioos:station:USF.COMPS:C10:1,2016-07-03T23:05:00Z,27.1690,-82.9260,29.97,1111122 
COMPS,ioos:station:USF.COMPS:C10:1,2016-07-03T23:35:00Z,27.1690,-82.9260,29.88,1111122 
COMPS,ioos:station:USF.COMPS:C10:1,2016-07-04T00:05:00Z,27.1690,-82.9260,29.73,1111122 
COMPS,ioos:station:USF.COMPS:C10:1,2016-07-04T00:35:00Z,27.1690,-82.9260,29.7,1111122 
COMPS,ioos:station:USF.COMPS:C10:1,2016-07-04T01:05:00Z,27.1690,-82.9260,29.57,1111122 
COMPS,ioos:station:USF.COMPS:C10:1,2016-07-04T01:35:00Z,27.1690,-82.9260,29.51,1111122 
COMPS,ioos:station:USF.COMPS:C10:1,2016-07-04T02:05:00Z,27.1690,-82.9260,29.45,1111122 
COMPS,ioos:station:USF.COMPS:C10:1,2016-07-04T02:35:00Z,27.1690,-82.9260,29.45,1111122 
COMPS,ioos:station:USF.COMPS:C10:1,2016-07-04T03:05:00Z,27.1690,-82.9260,29.49,1111122 
COMPS,ioos:station:USF.COMPS:C10:1,2016-07-04T03:35:00Z,27.1690,-82.9260,29.4,1111122 
COMPS,ioos:station:USF.COMPS:C10:1,2016-07-04T04:05:00Z,27.1690,-82.9260,29.33,1111122 
COMPS,ioos:station:USF.COMPS:C10:1,2016-07-04T04:35:00Z,27.1690,-82.9260,29.31,1111122 
COMPS,ioos:station:USF.COMPS:C10:1,2016-07-04T05:05:00Z,27.1690,-82.9260,29.14,1111122 
COMPS,ioos:station:USF.COMPS:C10:1,2016-07-04T05:35:00Z,27.1690,-82.9260,29.08,1111122 
COMPS,ioos:station:USF.COMPS:C10:1,2016-07-04T06:05:00Z,27.1690,-82.9260,29.02,1111122 
COMPS,ioos:station:USF.COMPS:C10:1,2016-07-04T06:35:00Z,27.1690,-82.9260,29.0,1111122 
COMPS,ioos:station:USF.COMPS:C10:1,2016-07-04T10:05:00Z,27.1690,-82.9260,29.19,1111122 
COMPS,ioos:station:USF.COMPS:C10:1,2016-07-04T10:35:00Z,27.1690,-82.9260,29.11,1111122 
COMPS,ioos:station:USF.COMPS:C10:1,2016-07-04T11:05:00Z,27.1690,-82.9260,29.17,1111122 
COMPS,ioos:station:USF.COMPS:C10:1,2016-07-04T11:35:00Z,27.1690,-82.9260,29.77,1111122 
COMPS,ioos:station:USF.COMPS:C10:1,2016-07-04T12:05:00Z,27.1690,-82.9260,29.81,1111122 
COMPS,ioos:station:USF.COMPS:C10:1,2016-07-04T12:35:00Z,27.1690,-82.9260,29.65,1111122 
COMPS,ioos:station:USF.COMPS:C10:1,2016-07-04T16:05:00Z,27.1690,-82.9260,29.81,1111122 
COMPS,ioos:station:USF.COMPS:C10:1,2016-07-04T16:35:00Z,27.1690,-82.9260,29.92,1111122 
COMPS,ioos:station:USF.COMPS:C10:1,2016-07-04T17:05:00Z,27.1690,-82.9260,30.18,1111122 
COMPS,ioos:station:USF.COMPS:C10:1,2016-07-04T17:35:00Z,27.1690,-82.9260,30.27,1111122 
COMPS,ioos:station:USF.COMPS:C10:1,2016-07-04T18:05:00Z,27.1690,-82.9260,30.42,1111122 
COMPS,ioos:station:USF.COMPS:C10:1,2016-07-04T18:35:00Z,27.1690,-82.9260,30.41,1111122 
COMPS,ioos:station:USF.COMPS:C10:1,2016-07-04T19:05:00Z,27.1690,-82.9260,30.8,1111122 
COMPS,ioos:station:USF.COMPS:C10:1,2016-07-04T19:35:00Z,27.1690,-82.9260,30.79,1111122 
COMPS,ioos:station:USF.COMPS:C10:1,2016-07-04T20:05:00Z,27.1690,-82.9260,30.78,1111122 
COMPS,ioos:station:USF.COMPS:C10:1,2016-07-04T20:35:00Z,27.1690,-82.9260,30.74,1111122 
COMPS,ioos:station:USF.COMPS:C10:1,2016-07-04T21:05:00Z,27.1690,-82.9260,30.94,1111122 
COMPS,ioos:station:USF.COMPS:C10:1,2016-07-04T21:35:00Z,27.1690,-82.9260,31.35,1111122 
COMPS,ioos:station:USF.COMPS:C10:1,2016-07-04T22:05:00Z,27.1690,-82.9260,31.1,1111122 
COMPS,ioos:station:USF.COMPS:C10:1,2016-07-04T22:35:00Z,27.1690,-82.9260,31.18,1111122 
COMPS,ioos:station:USF.COMPS:C10:1,2016-07-04T23:05:00Z,27.1690,-82.9260,31.32,1111122 
COMPS,ioos:station:USF.COMPS:C10:1,2016-07-04T23:35:00Z,27.1690,-82.9260,30.43,1111122 
COMPS,ioos:station:USF.COMPS:C10:1,2016-07-05T00:05:00Z,27.1690,-82.9260,30.17,1111122 
COMPS,ioos:station:USF.COMPS:C10:1,2016-07-05T00:35:00Z,27.1690,-82.9260,30.08,1111122 
COMPS,ioos:station:USF.COMPS:C10:1,2016-07-05T01:05:00Z,27.1690,-82.9260,29.93,1111122 
COMPS,ioos:station:USF.COMPS:C10:1,2016-07-05T01:35:00Z,27.1690,-82.9260,29.97,1111122 
COMPS,ioos:station:USF.COMPS:C10:1,2016-07-05T02:05:00Z,27.1690,-82.9260,29.94,1111122 
COMPS,ioos:station:USF.COMPS:C10:1,2016-07-05T02:35:00Z,27.1690,-82.9260,29.92,1111122 
COMPS,ioos:station:USF.COMPS:C10:1,2016-07-05T03:05:00Z,27.1690,-82.9260,29.88,1111122 
COMPS,ioos:station:USF.COMPS:C10:1,2016-07-05T03:35:00Z,27.1690,-82.9260,29.88,1111122 
COMPS,ioos:station:USF.COMPS:C10:1,2016-07-05T04:05:00Z,27.1690,-82.9260,29.88,1111122 
COMPS,ioos:station:USF.COMPS:C10:1,2016-07-05T04:35:00Z,27.1690,-82.9260,29.78,1111122 
COMPS,ioos:station:USF.COMPS:C10:1,2016-07-05T05:05:00Z,27.1690,-82.9260,29.73,1111122 
COMPS,ioos:station:USF.COMPS:C10:1,2016-07-05T05:35:00Z,27.1690,-82.9260,29.66,1111122 
COMPS,ioos:station:USF.COMPS:C10:1,2016-07-05T06:05:00Z,27.1690,-82.9260,29.57,1111122 
COMPS,ioos:station:USF.COMPS:C10:1,2016-07-05T06:35:00Z,27.1690,-82.9260,29.6,1111122 
COMPS,ioos:station:USF.COMPS:C10:1,2016-07-05T07:05:00Z,27.1690,-82.9260,29.63,1111122 
COMPS,ioos:station:USF.COMPS:C10:1,2016-07-05T07:35:00Z,27.1690,-82.9260,29.61,1111122 
COMPS,ioos:station:USF.COMPS:C10:1,2016-07-05T08:05:00Z,27.1690,-82.9260,29.28,1111122 
COMPS,ioos:station:USF.COMPS:C10:1,2016-07-05T08:35:00Z,27.1690,-82.9260,29.34,1111122 
COMPS,ioos:station:USF.COMPS:C10:1,2016-07-05T09:05:00Z,27.1690,-82.9260,29.34,1111122 
COMPS,ioos:station:USF.COMPS:C10:1,2016-07-05T09:35:00Z,27.1690,-82.9260,29.42,1111122 
COMPS,ioos:station:USF.COMPS:C10:1,2016-07-05T10:05:00Z,27.1690,-82.9260,29.52,1111122 
COMPS,ioos:station:USF.COMPS:C10:1,2016-07-05T10:35:00Z,27.1690,-82.9260,29.39,1111122 
COMPS,ioos:station:USF.COMPS:C10:1,2016-07-05T11:05:00Z,27.1690,-82.9260,29.58,1111122 
COMPS,ioos:station:USF.COMPS:C10:1,2016-07-05T11:35:00Z,27.1690,-82.9260,29.92,1111122 
COMPS,ioos:station:USF.COMPS:C10:1,2016-07-05T12:05:00Z,27.1690,-82.9260,30.58,1111122 
COMPS,ioos:station:USF.COMPS:C10:1,2016-07-05T12:35:00Z,27.1690,-82.9260,30.36,1111122 
COMPS,ioos:station:USF.COMPS:C10:1,2016-07-05T13:05:00Z,27.1690,-82.9260,30.45,1111122 
COMPS,ioos:station:USF.COMPS:C10:1,2016-07-05T13:35:00Z,27.1690,-82.9260,30.26,1111122 
COMPS,ioos:station:USF.COMPS:C10:1,2016-07-05T14:05:00Z,27.1690,-82.9260,30.07,1111122 
COMPS,ioos:station:USF.COMPS:C10:1,2016-07-05T14:35:00Z,27.1690,-82.9260,30.23,1111122 
COMPS,ioos:station:USF.COMPS:C10:1,2016-07-05T15:05:00Z,27.1690,-82.9260,30.11,1111122 
COMPS,ioos:station:USF.COMPS:C10:1,2016-07-05T15:35:00Z,27.1690,-82.9260,30.03,1111122 
COMPS,ioos:station:USF.COMPS:C10:1,2016-07-05T16:05:00Z,27.1690,-82.9260,30.32,1111122 
COMPS,ioos:station:USF.COMPS:C10:1,2016-07-05T16:35:00Z,27.1690,-82.9260,30.39,1111122 
COMPS,ioos:station:USF.COMPS:C10:1,2016-07-05T17:05:00Z,27.1690,-82.9260,30.47,1111122 
COMPS,ioos:station:USF.COMPS:C10:1,2016-07-05T17:35:00Z,27.1690,-82.9260,30.51,1111122 
COMPS,ioos:station:USF.COMPS:C10:1,2016-07-05T18:05:00Z,27.1690,-82.9260,30.53,1111122 
COMPS,ioos:station:USF.COMPS:C10:1,2016-07-05T18:35:00Z,27.1690,-82.9260,30.53,1111122 
COMPS,ioos:station:USF.COMPS:C10:1,2016-07-05T19:05:00Z,27.1690,-82.9260,30.72,1111122 
COMPS,ioos:station:USF.COMPS:C10:1,2016-07-05T19:35:00Z,27.1690,-82.9260,30.78,1111122 
COMPS,ioos:station:USF.COMPS:C10:1,2016-07-05T20:05:00Z,27.1690,-82.9260,30.6,1111122 
COMPS,ioos:station:USF.COMPS:C10:1,2016-07-05T20:35:00Z,27.1690,-82.9260,30.82,1111122 
COMPS,ioos:station:USF.COMPS:C10:1,2016-07-05T21:05:00Z,27.1690,-82.9260,30.79,1111122 
COMPS,ioos:station:USF.COMPS:C10:1,2016-07-05T21:35:00Z,27.1690,-82.9260,30.9,1111122 
COMPS,ioos:station:USF.COMPS:C10:1,2016-07-05T22:05:00Z,27.1690,-82.9260,30.98,1111122 
COMPS,ioos:station:USF.COMPS:C10:1,2016-07-05T22:35:00Z,27.1690,-82.9260,31.08,1111122 
COMPS,ioos:station:USF.COMPS:C10:1,2016-07-05T23:05:00Z,27.1690,-82.9260,31.07,1111122 
COMPS,ioos:station:USF.COMPS:C10:1,2016-07-05T23:35:00Z,27.1690,-82.9260,30.97,1111122 
COMPS,ioos:station:USF.COMPS:C10:1,2016-07-06T00:05:00Z,27.1690,-82.9260,30.76,1111122 
COMPS,ioos:station:USF.COMPS:C10:1,2016-07-06T00:35:00Z,27.1690,-82.9260,30.41,1111122 
COMPS,ioos:station:USF.COMPS:C10:1,2016-07-06T01:05:00Z,27.1690,-82.9260,30.31,1111122 
COMPS,ioos:station:USF.COMPS:C10:1,2016-07-06T01:35:00Z,27.1690,-82.9260,30.21,1111122 
COMPS,ioos:station:USF.COMPS:C10:1,2016-07-06T02:05:00Z,27.1690,-82.9260,30.11,1111122 
COMPS,ioos:station:USF.COMPS:C10:1,2016-07-06T02:35:00Z,27.1690,-82.9260,30.13,1111122 
COMPS,ioos:station:USF.COMPS:C10:1,2016-07-06T03:05:00Z,27.1690,-82.9260,30.17,1111122 
COMPS,ioos:station:USF.COMPS:C10:1,2016-07-06T03:35:00Z,27.1690,-82.9260,30.14,1111122 
COMPS,ioos:station:USF.COMPS:C10:1,2016-07-06T04:05:00Z,27.1690,-82.9260,30.09,1111122 
COMPS,ioos:station:USF.COMPS:C10:1,2016-07-06T04:35:00Z,27.1690,-82.9260,29.99,1111122 
COMPS,ioos:station:USF.COMPS:C10:1,2016-07-06T05:05:00Z,27.1690,-82.9260,29.94,1111122 
COMPS,ioos:station:USF.COMPS:C10:1,2016-07-06T05:35:00Z,27.1690,-82.9260,29.99,1111122 
COMPS,ioos:station:USF.COMPS:C10:1,2016-07-06T09:05:00Z,27.1690,-82.9260,29.43,1111122 
COMPS,ioos:station:USF.COMPS:C10:1,2016-07-06T09:35:00Z,27.1690,-82.9260,29.32,1111122 
COMPS,ioos:station:USF.COMPS:C10:1,2016-07-06T10:05:00Z,27.1690,-82.9260,29.4,1111122 
COMPS,ioos:station:USF.COMPS:C10:1,2016-07-06T10:35:00Z,27.1690,-82.9260,29.38,1111122 
COMPS,ioos:station:USF.COMPS:C10:1,2016-07-06T12:05:00Z,27.1690,-82.9260,30.01,1111122 
COMPS,ioos:station:USF.COMPS:C10:1,2016-07-06T12:35:00Z,27.1690,-82.9260,29.89,1111122 
COMPS,ioos:station:USF.COMPS:C10:1,2016-07-06T14:05:00Z,27.1690,-82.9260,30.0,1111122 
COMPS,ioos:station:USF.COMPS:C10:1,2016-07-06T14:35:00Z,27.1690,-82.9260,30.24,1111122 
COMPS,ioos:station:USF.COMPS:C10:1,2016-07-06T15:05:00Z,27.1690,-82.9260,30.6,1111122 
COMPS,ioos:station:USF.COMPS:C10:1,2016-07-06T15:35:00Z,27.1690,-82.9260,30.29,1111122 
COMPS,ioos:station:USF.COMPS:C10:1,2016-07-06T16:05:00Z,27.1690,-82.9260,30.25,1111122 
COMPS,ioos:station:USF.COMPS:C10:1,2016-07-06T16:35:00Z,27.1690,-82.9260,29.98,1111122 
COMPS,ioos:station:USF.COMPS:C10:1,2016-07-06T18:05:00Z,27.1690,-82.9260,30.54,1111122 
COMPS,ioos:station:USF.COMPS:C10:1,2016-07-06T18:35:00Z,27.1690,-82.9260,30.29,1111122 
COMPS,ioos:station:USF.COMPS:C10:1,2016-07-06T19:05:00Z,27.1690,-82.9260,30.5,1111122 
COMPS,ioos:station:USF.COMPS:C10:1,2016-07-06T19:35:00Z,27.1690,-82.9260,30.63,1111122 
COMPS,ioos:station:USF.COMPS:C10:1,2016-07-06T20:05:00Z,27.1690,-82.9260,30.99,1111122 
COMPS,ioos:station:USF.COMPS:C10:1,2016-07-06T20:35:00Z,27.1690,-82.9260,31.22,1111122 
COMPS,ioos:station:USF.COMPS:C10:1,2016-07-06T21:05:00Z,27.1690,-82.9260,31.24,1111122 
COMPS,ioos:station:USF.COMPS:C10:1,2016-07-06T21:35:00Z,27.1690,-82.9260,31.57,1111122 
COMPS,ioos:station:USF.COMPS:C10:1,2016-07-06T22:05:00Z,27.1690,-82.9260,31.11,1111122 
COMPS,ioos:station:USF.COMPS:C10:1,2016-07-06T22:35:00Z,27.1690,-82.9260,31.51,1111122 
COMPS,ioos:station:USF.COMPS:C10:1,2016-07-06T23:05:00Z,27.1690,-82.9260,31.35,1111122 
COMPS,ioos:station:USF.COMPS:C10:1,2016-07-06T23:35:00Z,27.1690,-82.9260,31.41,1111122 
COMPS,ioos:station:USF.COMPS:C10:1,2016-07-07T00:05:00Z,27.1690,-82.9260,30.88,1111122 
COMPS,ioos:station:USF.COMPS:C10:1,2016-07-07T00:35:00Z,27.1690,-82.9260,30.28,1111122 
COMPS,ioos:station:USF.COMPS:C10:1,2016-07-07T01:05:00Z,27.1690,-82.9260,30.3,1111122 
COMPS,ioos:station:USF.COMPS:C10:1,2016-07-07T01:35:00Z,27.1690,-82.9260,30.25,1111122 
COMPS,ioos:station:USF.COMPS:C10:1,2016-07-07T02:05:00Z,27.1690,-82.9260,30.27,1111122 
COMPS,ioos:station:USF.COMPS:C10:1,2016-07-07T02:35:00Z,27.1690,-82.9260,30.33,1111122 
COMPS,ioos:station:USF.COMPS:C10:1,2016-07-07T04:05:00Z,27.1690,-82.9260,30.17,1111122 
COMPS,ioos:station:USF.COMPS:C10:1,2016-07-07T04:35:00Z,27.1690,-82.9260,30.22,1111122 
COMPS,ioos:station:USF.COMPS:C10:1,2016-07-07T05:05:00Z,27.1690,-82.9260,30.24,1111122 
COMPS,ioos:station:USF.COMPS:C10:1,2016-07-07T05:35:00Z,27.1690,-82.9260,30.3,1111122 